Weather History for KNYL - August, 2014

Change the Weather History Date:

Monday, August 11, 2014

  Actual Average Record
Temperature  
Mean Temperature 98 °F 94 °F  
Max Temperature 108 °F 106 °F 118 °F (1933)
Min Temperature 87 °F 83 °F 64 °F (1932)
Degree Days  
Heating Degree Days 0 0  
Month to date heating degree days 0 0  
Since 1 June heating degree days 0 0  
Since 1 July heating degree days 0 0  
Cooling Degree Days 33 30  
Month to date cooling degree days 308 330  
Year to date cooling degree days 3257 2876  
Since 1 June cooling degree days 2095 1964  
Growing Degree Days 47 (Base 50)    
Moisture  
Dew Point 63 °F    
Average Humidity 42    
Maximum Humidity 63    
Minimum Humidity 21    
Precipitation  
Precipitation T in 0.02 in 0.67 in (1955)
Month to date precipitation 0.02 0.17  
Year to date precipitation 0.37 1.79  
Sea Level Pressure  
Sea Level Pressure 29.81 in    
Wind  
Wind Speed 7 mph (SSW)    
Max Wind Speed 20 mph    
Max Gust Speed 22 mph    
Visibility 10 miles    
Events Thunderstorm    
T = Trace of Precipitation, MM = Missing Value Source: NWS Daily Summary

Daily Weather History Graph

Daily Weather History Graph

Search for Another Location

Airport or City:

Trip Planner

Search our weather history database for the weather conditions in past years. The results will help you decide how hot, cold, wet, or windy it might be!

Date:

Astronomy

Aug. 11, 2014 Rise Set
Actual Time 5:59 AM MST 7:27 PM MST
Civil Twilight 5:33 AM MST 7:53 PM MST
Nautical Twilight 5:01 AM MST 8:24 PM MST
Astronomical Twilight 4:28 AM MST 8:57 PM MST
Moon 8:07 PM MST (8/11) 7:02 AM MST (8/11)
Length of Visible Light 14h 20m
Length of Day
13h 27m
Full, 98% of the Moon is Illuminated
Aug 11
Full
Aug 17
Last Quarter
Aug 25
New
Sep 2
First Quarter
Sep 8
Full

Hourly Weather History & Observations

Time (MST) Temp. Heat Index Dew Point Humidity Pressure Visibility Wind Dir Wind Speed Gust Speed Precip Events Conditions
12:57 AM 90.0 °F 92.4 °F 66.0 °F 45% 29.84 in 10.0 mi South 5.8 mph - N/A   Scattered Clouds
1:57 AM 90.0 °F 92.4 °F 66.0 °F 45% 29.83 in 10.0 mi WSW 4.6 mph - N/A   Mostly Cloudy
2:57 AM 89.1 °F 91.0 °F 64.9 °F 45% 29.82 in 10.0 mi South 3.5 mph - 0.00 in   Partly Cloudy
3:57 AM 88.0 °F 90.3 °F 66.0 °F 48% 29.81 in 10.0 mi SSE 11.5 mph - N/A   Clear
4:57 AM 88.0 °F 93.8 °F 71.1 °F 57% 29.81 in 10.0 mi SSE 10.4 mph - N/A   Clear
5:57 AM 87.1 °F 94.5 °F 73.0 °F 63% 29.82 in 10.0 mi SE 9.2 mph - N/A   Scattered Clouds
6:57 AM 89.1 °F 92.9 °F 68.0 °F 50% 29.83 in 10.0 mi SE 10.4 mph - N/A   Mostly Cloudy
7:57 AM 91.9 °F 91.5 °F 60.1 °F 34% 29.85 in 10.0 mi SE 8.1 mph - N/A   Mostly Cloudy
8:57 AM 96.1 °F 94.8 °F 57.0 °F 27% 29.86 in 10.0 mi SSE 8.1 mph - N/A   Mostly Cloudy
9:57 AM 98.1 °F 96.4 °F 55.0 °F 24% 29.86 in 10.0 mi South 9.2 mph - N/A   Scattered Clouds
10:57 AM 100.0 °F 100.2 °F 59.0 °F 26% 29.86 in 10.0 mi South 6.9 mph - N/A   Scattered Clouds
11:57 AM 100.9 °F 100.5 °F 57.9 °F 24% 29.85 in 10.0 mi SW 6.9 mph - N/A   Partly Cloudy
12:57 PM 102.9 °F 102.4 °F 57.0 °F 22% 29.83 in 10.0 mi Variable 4.6 mph - N/A   Scattered Clouds
1:57 PM 106.0 °F 106.4 °F 57.9 °F 21% 29.81 in 10.0 mi Variable 5.8 mph - N/A   Scattered Clouds
2:57 PM 107.1 °F 108.1 °F 59.0 °F 21% 29.78 in 10.0 mi WSW 6.9 mph - N/A   Mostly Cloudy
3:57 PM 106.0 °F 109.3 °F 63.0 °F 25% 29.75 in 10.0 mi West 11.5 mph - N/A   Mostly Cloudy
4:57 PM 106.0 °F 108.6 °F 62.1 °F 24% 29.75 in 10.0 mi WSW 8.1 mph - N/A   Mostly Cloudy
5:57 PM 105.1 °F 107.8 °F 62.1 °F 25% 29.74 in 10.0 mi West 4.6 mph - N/A Thunderstorm Thunderstorm
6:57 PM 102.0 °F 104.6 °F 63.0 °F 28% 29.74 in 9.0 mi ESE 9.2 mph - N/A   Mostly Cloudy
7:57 PM 99.0 °F 102.9 °F 66.0 °F 34% 29.76 in 10.0 mi South 9.2 mph - N/A   Mostly Cloudy
8:57 PM 97.0 °F 102.2 °F 68.0 °F 39% 29.78 in 10.0 mi SSW 10.4 mph - N/A   Mostly Cloudy
9:57 PM 96.1 °F 99.9 °F 66.9 °F 38% 29.78 in 10.0 mi WSW 5.8 mph - N/A   Scattered Clouds
10:57 PM 93.9 °F 97.5 °F 66.9 °F 41% 29.80 in 10.0 mi SSW 4.6 mph - N/A   Scattered Clouds
11:57 PM 93.0 °F 96.4 °F 66.9 °F 42% 29.81 in 10.0 mi SSW 4.6 mph - N/A   Clear